| time (UTC) | temp F | wind direction | speed knots | gust knots | rain 1hr in | rain 24hr in | rain mn in | humidity % | barometer mb |
| 20260506171111 | 65 | 240 | 0.0 | 3.5 | 0.00 | 0.00 | 0.00 | 83 | 1015.1 |
| 20260506170608 | 65 | 274 | 2.6 | 3.5 | 0.00 | 0.00 | 0.00 | 82 | 1015.1 |
| 20260506170105 | 64 | 47 | 2.6 | 3.5 | 0.00 | 0.00 | 0.00 | 84 | 1014.9 |
| 20260506165603 | 64 | 329 | 1.7 | 3.5 | 0.00 | 0.00 | 0.00 | 84 | 1015.3 |
| 20260506165059 | 64 | 48 | 1.7 | 6.1 | 0.00 | 0.00 | 0.00 | 84 | 1015.1 |
| 20260506164556 | 64 | 326 | 0.9 | 6.1 | 0.00 | 0.00 | 0.00 | 82 | 1015.3 |
| 20260506164054 | 65 | 33 | 0.0 | 3.5 | 0.00 | 0.00 | 0.00 | 83 | 1015.0 |
| 20260506163549 | 66 | 268 | 2.6 | 5.2 | 0.00 | 0.00 | 0.00 | 80 | 1014.6 |
| 20260506163046 | 65 | 40 | 0.0 | 1.7 | 0.00 | 0.00 | 0.00 | 82 | 1014.7 |
| 20260506162542 | 66 | 26 | 0.0 | 4.3 | 0.00 | 0.00 | 0.00 | 82 | 1014.6 |
| 20260506162039 | 65 | 334 | 0.9 | 5.2 | 0.00 | 0.00 | 0.00 | 82 | 1014.5 |
| 20260506161537 | 65 | 50 | 1.7 | 5.2 | 0.00 | 0.00 | 0.00 | 82 | 1014.2 |
| 20260506161033 | 65 | 0 | 0.0 | 3.5 | 0.00 | 0.00 | 0.00 | 81 | 1013.9 |
| 20260506160531 | 65 | 254 | 3.5 | 4.3 | 0.00 | 0.00 | 0.00 | 82 | 1013.8 |
| 20260506160028 | 65 | 253 | 0.0 | 1.7 | 0.00 | 0.00 | 0.00 | 83 | 1013.8 |
| 20260506155526 | 66 | 229 | 0.0 | 2.6 | 0.00 | 0.00 | 0.00 | 82 | 1013.6 |
| 20260506153657 | 66 | 50 | 0.0 | 2.6 | 0.00 | 0.00 | 0.00 | 82 | 1013.1 |
| 20260506153155 | 66 | 39 | 0.0 | 3.5 | 0.00 | 0.00 | 0.00 | 82 | 1013.7 |
| 20260506152652 | 66 | 29 | 0.9 | 3.5 | 0.00 | 0.00 | 0.00 | 82 | 1013.6 |
| 20260506152149 | 66 | 279 | 2.6 | 2.6 | 0.00 | 0.00 | 0.00 | 81 | 1013.6 |
| 20260506151648 | 67 | 32 | 0.0 | 3.5 | 0.00 | 0.00 | 0.00 | 81 | 1013.4 |
| 20260506151144 | 68 | 346 | 1.7 | 2.6 | 0.00 | 0.00 | 0.00 | 79 | 1013.1 |
| 20260506150641 | 68 | 11 | 0.0 | 1.7 | 0.00 | 0.00 | 0.00 | 80 | 1013.2 |
| 20260506150138 | 68 | 82 | 0.9 | 1.7 | 0.00 | 0.00 | 0.00 | 81 | 1012.9 |
| 20260506145635 | 66 | 3 | 1.7 | 2.6 | 0.00 | 0.00 | 0.00 | 83 | 1012.9 |
| 20260506145131 | 66 | 265 | 2.6 | 3.5 | 0.00 | 0.00 | 0.00 | 82 | 1013.1 |
| 20260506144629 | 65 | 23 | 1.7 | 1.7 | 0.00 | 0.00 | 0.00 | 84 | 1012.9 |
| 20260506144125 | 65 | 273 | 0.0 | 5.2 | 0.00 | 0.00 | 0.00 | 84 | 1012.7 |
| 20260506143624 | 65 | 272 | 1.7 | 5.2 | 0.00 | 0.00 | 0.00 | 84 | 1012.8 |
| 20260506143121 | 64 | 240 | 0.0 | 2.6 | 0.00 | 0.00 | 0.00 | 86 | 1012.9 |
| 20260506142619 | 64 | 53 | 1.7 | 3.5 | 0.00 | 0.00 | 0.00 | 85 | 1013.0 |
| 20260506142117 | 64 | 298 | 1.7 | 2.6 | 0.00 | 0.00 | 0.00 | 86 | 1012.9 |
| 20260506141614 | 65 | 266 | 3.5 | 6.1 | 0.00 | 0.00 | 0.00 | 85 | 1012.9 |
| 20260506141113 | 65 | 22 | 3.5 | 5.2 | 0.00 | 0.00 | 0.00 | 85 | 1012.6 |
| 20260506140610 | 65 | 59 | 0.9 | 2.6 | 0.00 | 0.00 | 0.00 | 86 | 1012.8 |
| 20260506140107 | 65 | 277 | 0.9 | 5.2 | 0.00 | 0.00 | 0.00 | 84 | 1012.7 |
| 20260506135604 | 65 | 29 | 3.5 | 3.5 | 0.00 | 0.00 | 0.00 | 85 | 1012.5 |
| 20260506135100 | 65 | 261 | 4.3 | 4.3 | 0.00 | 0.00 | 0.00 | 85 | 1012.7 |
| 20260506134557 | 65 | 13 | 0.9 | 2.6 | 0.00 | 0.00 | 0.00 | 85 | 1012.5 |
| 20260506134052 | 66 | 309 | 0.9 | 5.2 | 0.00 | 0.00 | 0.00 | 85 | 1012.4 |
| 20260506133550 | 66 | 53 | 0.9 | 2.6 | 0.00 | 0.00 | 0.00 | 86 | 1012.4 |
| 20260506133047 | 66 | 298 | 0.9 | 5.2 | 0.00 | 0.00 | 0.00 | 86 | 1012.3 |
| 20260506132544 | 66 | 89 | 0.0 | 3.5 | 0.00 | 0.00 | 0.00 | 86 | 1012.2 |
| 20260506132041 | 66 | 26 | 1.7 | 1.7 | 0.00 | 0.00 | 0.00 | 87 | 1012.2 |
| 20260506131538 | 66 | 20 | 0.9 | 2.6 | 0.00 | 0.00 | 0.00 | 88 | 1012.0 |
| 20260506131034 | 66 | 284 | 1.7 | 4.3 | 0.00 | 0.00 | 0.00 | 88 | 1011.9 |
| 20260506130532 | 67 | 75 | 1.7 | 2.6 | 0.00 | 0.00 | 0.00 | 88 | 1011.7 |
| 20260506130029 | 68 | 74 | 2.6 | 3.5 | 0.00 | 0.00 | 0.00 | 89 | 1011.8 |
| 20260506125527 | 68 | 288 | 1.7 | 3.5 | 0.00 | 0.00 | 0.00 | 88 | 1011.6 |
| 20260506125025 | 68 | 293 | 0.0 | 2.6 | 0.00 | 0.00 | 0.00 | 88 | 1011.7 |
| 20260506124522 | 68 | 285 | 1.7 | 1.7 | 0.00 | 0.00 | 0.00 | 88 | 1011.6 |
| 20260506124020 | 68 | 225 | 0.9 | 1.7 | 0.00 | 0.00 | 0.00 | 88 | 1011.4 |
| 20260506123518 | 69 | 3 | 0.0 | 3.5 | 0.00 | 0.00 | 0.00 | 86 | 1011.3 |
| 20260506123016 | 70 | 263 | 2.6 | 6.1 | 0.00 | 0.00 | 0.00 | 84 | 1011.4 |
| 20260506122512 | 72 | 273 | 2.6 | 3.5 | 0.00 | 0.00 | 0.00 | 86 | 1011.2 |
| 20260506122010 | 73 | 245 | 1.7 | 5.2 | 0.00 | 0.00 | 0.00 | 86 | 1011.1 |
| 20260506121507 | 74 | 31 | 0.0 | 2.6 | 0.00 | 0.00 | 0.00 | 87 | 1011.1 |
| 20260506121004 | 75 | 34 | 0.0 | 0.9 | 0.00 | 0.00 | 0.00 | 90 | 1011.1 |
| 20260506120501 | 75 | 14 | 0.0 | 0.9 | 0.00 | 0.00 | 0.00 | 90 | 1010.9 |
| 20260506115959 | 75 | 3 | 0.0 | 1.7 | 0.00 | 0.00 | 0.00 | 90 | 1010.9 |
| 20260506115456 | 75 | 31 | 0.0 | 1.7 | 0.00 | 0.00 | 0.00 | 90 | 1010.7 |
| 20260506114954 | 75 | 198 | 0.0 | 1.7 | 0.00 | 0.00 | 0.00 | 90 | 1010.6 |
| 20260506114452 | 75 | 274 | 1.7 | 1.7 | 0.00 | 0.00 | 0.00 | 90 | 1010.5 |
| 20260506113950 | 75 | 298 | 0.0 | 1.7 | 0.00 | 0.00 | 0.00 | 90 | 1010.5 |
| 20260506113448 | 75 | 278 | 0.0 | 1.7 | 0.00 | 0.00 | 0.00 | 90 | 1010.5 |
| 20260506112944 | 75 | 353 | 0.0 | 1.7 | 0.00 | 0.00 | 0.00 | 90 | 1010.4 |
| 20260506112442 | 75 | 43 | 0.0 | 2.6 | 0.00 | 0.00 | 0.00 | 90 | 1010.3 |
| 20260506111939 | 75 | 50 | 0.0 | 0.9 | 0.00 | 0.00 | 0.00 | 90 | 1010.3 |
| 20260506111437 | 75 | 15 | 0.0 | 1.7 | 0.00 | 0.00 | 0.00 | 90 | 1010.2 |
| 20260506110933 | 75 | 0 | 0.0 | 0.9 | 0.00 | 0.00 | 0.00 | 90 | 1010.1 |
| 20260506110432 | 75 | 58 | 0.0 | 1.7 | 0.00 | 0.00 | 0.00 | 90 | 1010.1 |
| 20260506105927 | 75 | 129 | 0.0 | 0.9 | 0.00 | 0.00 | 0.00 | 89 | 1010.2 |
| 20260506105424 | 75 | 123 | 1.7 | 2.6 | 0.00 | 0.00 | 0.00 | 89 | 1010.0 |
| 20260506104921 | 75 | 227 | 0.0 | 1.7 | 0.00 | 0.00 | 0.00 | 90 | 1010.0 |
| 20260506104419 | 75 | 15 | 0.0 | 1.7 | 0.00 | 0.00 | 0.00 | 90 | 1009.9 |
| 20260506103917 | 75 | 176 | 1.7 | 1.7 | 0.00 | 0.00 | 0.00 | 90 | 1009.8 |
| 20260506103414 | 75 | 141 | 0.0 | 1.7 | 0.00 | 0.00 | 0.00 | 90 | 1009.7 |
| 20260506102911 | 75 | 22 | 0.0 | 2.6 | 0.00 | 0.00 | 0.00 | 90 | 1009.8 |
| 20260506102410 | 75 | 174 | 0.0 | 1.7 | 0.00 | 0.00 | 0.00 | 90 | 1009.6 |
| 20260506101906 | 75 | 76 | 0.0 | 1.7 | 0.00 | 0.00 | 0.00 | 89 | 1009.5 |
| 20260506101402 | 75 | 145 | 0.9 | 2.6 | 0.00 | 0.00 | 0.00 | 89 | 1009.7 |
| 20260506100900 | 75 | 133 | 1.7 | 2.6 | 0.00 | 0.00 | 0.00 | 89 | 1009.6 |
| 20260506100358 | 75 | 4 | 0.9 | 3.5 | 0.00 | 0.00 | 0.00 | 89 | 1009.6 |
| 20260506095856 | 75 | 331 | 1.7 | 3.5 | 0.00 | 0.00 | 0.00 | 89 | 1009.5 |
| 20260506095354 | 75 | 329 | 0.0 | 2.6 | 0.00 | 0.00 | 0.00 | 89 | 1009.5 |
| 20260506094850 | 75 | 93 | 1.7 | 4.3 | 0.00 | 0.00 | 0.00 | 90 | 1009.6 |
| 20260506094349 | 75 | 159 | 0.0 | 1.7 | 0.00 | 0.00 | 0.00 | 89 | 1009.4 |
| 20260506093846 | 75 | 145 | 0.0 | 2.6 | 0.00 | 0.00 | 0.00 | 89 | 1009.4 |
| 20260506093344 | 75 | 36 | 0.0 | 2.6 | 0.00 | 0.00 | 0.00 | 89 | 1009.3 |
| 20260506092841 | 75 | 141 | 0.0 | 3.5 | 0.00 | 0.00 | 0.00 | 89 | 1009.3 |
| 20260506092339 | 75 | 162 | 0.0 | 1.7 | 0.00 | 0.00 | 0.00 | 90 | 1009.2 |
| 20260506091836 | 75 | 195 | 0.0 | 1.7 | 0.00 | 0.00 | 0.00 | 90 | 1009.1 |
| 20260506091333 | 75 | 148 | 0.9 | 2.6 | 0.00 | 0.00 | 0.00 | 90 | 1009.1 |
| 20260506090831 | 75 | 117 | 1.7 | 2.6 | 0.00 | 0.00 | 0.00 | 90 | 1009.3 |
| 20260506090328 | 75 | 164 | 2.6 | 2.6 | 0.00 | 0.00 | 0.00 | 90 | 1009.1 |
| 20260506085825 | 75 | 120 | 0.0 | 2.6 | 0.00 | 0.00 | 0.00 | 90 | 1009.1 |
| 20260506085321 | 75 | 161 | 2.6 | 4.3 | 0.00 | 0.00 | 0.00 | 90 | 1009.1 |
| 20260506084817 | 75 | 194 | 0.0 | 2.6 | 0.00 | 0.00 | 0.00 | 90 | 1009.3 |
| 20260506084314 | 75 | 110 | 1.7 | 1.7 | 0.00 | 0.00 | 0.00 | 90 | 1009.1 |
| 20260506083811 | 74 | 167 | 2.6 | 3.5 | 0.00 | 0.00 | 0.00 | 90 | 1009.2 |
| 20260506083309 | 74 | 131 | 0.0 | 1.7 | 0.00 | 0.00 | 0.00 | 90 | 1009.1 |
| 20260506082806 | 74 | 147 | 0.0 | 3.5 | 0.00 | 0.00 | 0.00 | 90 | 1009.3 |
| 20260506082304 | 74 | 176 | 2.6 | 2.6 | 0.00 | 0.00 | 0.00 | 90 | 1008.9 |
| 20260506081759 | 74 | 186 | 0.0 | 1.7 | 0.00 | 0.00 | 0.00 | 90 | 1008.9 |
| 20260506081256 | 74 | 203 | 0.0 | 2.6 | 0.00 | 0.00 | 0.00 | 90 | 1009.0 |
| 20260506080754 | 74 | 5 | 0.0 | 1.7 | 0.00 | 0.00 | 0.00 | 90 | 1008.7 |
| 20260506080250 | 74 | 250 | 0.0 | 4.3 | 0.00 | 0.00 | 0.00 | 90 | 1009.1 |
| 20260506073234 | 75 | 22 | 0.0 | 1.7 | 0.00 | 0.00 | 0.00 | 90 | 1009.3 |
| 20260506072731 | 74 | 147 | 0.0 | 2.6 | 0.00 | 0.00 | 0.00 | 91 | 1009.4 |
| 20260506072229 | 74 | 143 | 1.7 | 2.6 | 0.00 | 0.00 | 0.00 | 91 | 1009.0 |
| 20260506071726 | 74 | 225 | 1.7 | 2.6 | 0.00 | 0.00 | 0.00 | 90 | 1009.0 |
| 20260506071224 | 74 | 15 | 0.0 | 1.7 | 0.00 | 0.00 | 0.00 | 90 | 1009.3 |
| 20260506070721 | 75 | 6 | 0.9 | 2.6 | 0.00 | 0.00 | 0.00 | 90 | 1009.0 |
| 20260506070218 | 75 | 196 | 0.9 | 5.2 | 0.00 | 0.00 | 0.00 | 90 | 1009.1 |
| 20260506062154 | 75 | 329 | 1.7 | 2.6 | 0.00 | 0.00 | 0.00 | 89 | 1010.1 |
| 20260506061650 | 75 | 257 | 0.0 | 2.6 | 0.00 | 0.00 | 0.00 | 89 | 1010.0 |
| 20260506061148 | 75 | 266 | 1.7 | 3.5 | 0.00 | 0.00 | 0.00 | 89 | 1009.9 |
| 20260506060647 | 75 | 111 | 0.9 | 2.6 | 0.00 | 0.00 | 0.00 | 90 | 1009.8 |
| 20260506060143 | 75 | 219 | 0.0 | 1.7 | 0.00 | 0.00 | 0.00 | 90 | 1009.6 |
| 20260506051115 | 75 | 124 | 0.9 | 3.5 | 0.00 | 0.00 | 0.00 | 90 | 1009.5 |
| 20260506050613 | 75 | 142 | 0.0 | 2.6 | 0.00 | 0.00 | 0.00 | 90 | 1009.3 |
| 20260506050110 | 75 | 190 | 0.0 | 4.3 | 0.00 | 0.00 | 0.00 | 90 | 1009.1 |
| 20260506045104 | 75 | 27 | 0.9 | 1.7 | 0.00 | 0.00 | 0.00 | 90 | 1009.3 |
| 20260506044602 | 75 | 94 | 0.9 | 3.5 | 0.00 | 0.00 | 0.00 | 90 | 1009.0 |
| 20260506044058 | 75 | 158 | 0.0 | 2.6 | 0.00 | 0.00 | 0.00 | 90 | 1008.9 |
| 20260506043555 | 75 | 307 | 0.9 | 2.6 | 0.00 | 0.00 | 0.00 | 89 | 1008.7 |
| 20260506043054 | 75 | 117 | 0.0 | 1.7 | 0.00 | 0.00 | 0.00 | 89 | 1008.7 |
| 20260506042552 | 75 | 206 | 0.9 | 1.7 | 0.00 | 0.00 | 0.00 | 89 | 1008.7 |
| 20260506042050 | 75 | 210 | 0.0 | 3.5 | 0.00 | 0.00 | 0.00 | 89 | 1008.4 |
| 20260506041548 | 75 | 164 | 2.6 | 3.5 | 0.00 | 0.00 | 0.00 | 88 | 1008.3 |
| 20260506041045 | 75 | 160 | 0.0 | 5.2 | 0.00 | 0.00 | 0.00 | 88 | 1008.4 |
| 20260506040543 | 76 | 250 | 0.0 | 2.6 | 0.00 | 0.00 | 0.00 | 88 | 1008.4 |
| 20260506040038 | 76 | 83 | 0.9 | 1.7 | 0.00 | 0.00 | 0.00 | 88 | 1008.1 |
| 20260506035536 | 76 | 54 | 0.9 | 4.3 | 0.00 | 0.00 | 0.00 | 87 | 1008.4 |
| 20260506035032 | 76 | 106 | 2.6 | 2.6 | 0.00 | 0.00 | 0.00 | 87 | 1008.4 |
| 20260506034530 | 76 | 82 | 3.5 | 3.5 | 0.00 | 0.00 | 0.00 | 87 | 1008.5 |
| 20260506034026 | 76 | 146 | 1.7 | 2.6 | 0.00 | 0.00 | 0.00 | 86 | 1008.3 |
| 20260506033524 | 76 | 109 | 0.9 | 2.6 | 0.00 | 0.00 | 0.00 | 86 | 1008.5 |
| 20260506033021 | 77 | 152 | 1.7 | 4.3 | 0.00 | 0.00 | 0.00 | 85 | 1008.2 |
| 20260506032518 | 77 | 258 | 1.7 | 1.7 | 0.00 | 0.00 | 0.00 | 85 | 1008.2 |
| 20260506032015 | 77 | 28 | 0.0 | 2.6 | 0.00 | 0.00 | 0.00 | 85 | 1008.2 |
| 20260506031513 | 77 | 128 | 0.9 | 3.5 | 0.00 | 0.00 | 0.00 | 84 | 1008.4 |
| 20260506031009 | 77 | 272 | 0.0 | 2.6 | 0.00 | 0.00 | 0.00 | 84 | 1008.1 |
| 20260506030507 | 77 | 131 | 0.9 | 3.5 | 0.00 | 0.00 | 0.00 | 84 | 1008.1 |
| 20260506030004 | 77 | 217 | 0.0 | 2.6 | 0.00 | 0.00 | 0.00 | 84 | 1008.0 |
| 20260506025501 | 77 | 189 | 0.0 | 1.7 | 0.00 | 0.00 | 0.00 | 84 | 1008.1 |
| 20260506024957 | 77 | 35 | 1.7 | 1.7 | 0.00 | 0.00 | 0.00 | 84 | 1008.3 |
| 20260506024454 | 77 | 89 | 0.0 | 1.7 | 0.00 | 0.00 | 0.00 | 83 | 1008.4 |
| 20260506023950 | 77 | 102 | 0.0 | 1.7 | 0.00 | 0.00 | 0.00 | 83 | 1008.3 |
| 20260506023447 | 77 | 224 | 0.0 | 1.7 | 0.00 | 0.00 | 0.00 | 83 | 1008.4 |
| 20260506022943 | 77 | 62 | 0.0 | 0.9 | 0.00 | 0.00 | 0.00 | 83 | 1008.3 |
| 20260506022442 | 77 | 124 | 0.0 | 0.9 | 0.00 | 0.00 | 0.00 | 82 | 1008.1 |
| 20260506021939 | 77 | 114 | 0.9 | 2.6 | 0.00 | 0.00 | 0.00 | 83 | 1008.2 |
| 20260506021436 | 77 | 22 | 0.0 | 2.6 | 0.00 | 0.00 | 0.00 | 83 | 1007.7 |
| 20260506020933 | 77 | 38 | 0.0 | 1.7 | 0.00 | 0.00 | 0.00 | 83 | 1007.8 |
| 20260506020431 | 77 | 132 | 0.0 | 1.7 | 0.00 | 0.00 | 0.00 | 83 | 1007.9 |
| 20260506015928 | 77 | 53 | 0.0 | 0.9 | 0.00 | 0.00 | 0.00 | 83 | 1007.6 |
| 20260506015426 | 77 | 174 | 0.0 | 1.7 | 0.00 | 0.00 | 0.00 | 83 | 1007.5 |
| 20260506014922 | 77 | 86 | 1.7 | 2.6 | 0.00 | 0.00 | 0.00 | 82 | 1007.4 |
| 20260506014419 | 77 | 326 | 0.0 | 0.0 | 0.00 | 0.00 | 0.00 | 82 | 1007.5 |
| 20260506013916 | 77 | 269 | 0.0 | 0.9 | 0.00 | 0.00 | 0.00 | 81 | 1007.6 |
| 20260506013414 | 78 | 89 | 0.0 | 0.9 | 0.00 | 0.00 | 0.00 | 81 | 1007.4 |
| 20260506012909 | 78 | 333 | 0.0 | 0.0 | 0.00 | 0.00 | 0.00 | 80 | 1007.2 |
| 20260506012406 | 78 | 55 | 0.0 | 0.9 | 0.00 | 0.00 | 0.00 | 80 | 1007.3 |
| 20260506011903 | 78 | 111 | 0.0 | 1.7 | 0.00 | 0.00 | 0.00 | 79 | 1007.3 |
| 20260506011400 | 79 | 212 | 0.0 | 1.7 | 0.00 | 0.00 | 0.00 | 79 | 1007.6 |
| 20260506010857 | 79 | 196 | 2.6 | 2.6 | 0.00 | 0.00 | 0.00 | 78 | 1007.5 |
| 20260506010356 | 79 | 191 | 0.0 | 1.7 | 0.00 | 0.00 | 0.00 | 78 | 1007.1 |
| 20260506005852 | 79 | 55 | 0.0 | 1.7 | 0.00 | 0.00 | 0.00 | 78 | 1007.0 |
| 20260506005349 | 80 | 155 | 1.7 | 1.7 | 0.00 | 0.00 | 0.00 | 77 | 1006.8 |
| 20260506004845 | 80 | 348 | 0.0 | 1.7 | 0.00 | 0.00 | 0.00 | 77 | 1006.9 |
| 20260506004343 | 80 | 157 | 0.0 | 1.7 | 0.00 | 0.00 | 0.00 | 76 | 1006.8 |
| 20260506003839 | 80 | 209 | 0.0 | 0.9 | 0.00 | 0.00 | 0.00 | 76 | 1006.3 |
| 20260506003335 | 81 | 210 | 0.0 | 3.5 | 0.00 | 0.00 | 0.00 | 75 | 1006.3 |
| 20260506002832 | 81 | 185 | 0.0 | 3.5 | 0.00 | 0.00 | 0.00 | 74 | 1006.3 |
| 20260506002328 | 81 | 178 | 0.9 | 1.7 | 0.00 | 0.00 | 0.00 | 74 | 1006.4 |
| 20260506001824 | 82 | 113 | 0.0 | 3.5 | 0.00 | 0.00 | 0.00 | 73 | 1006.5 |
| 20260506001321 | 82 | 329 | 0.9 | 1.7 | 0.00 | 0.00 | 0.00 | 72 | 1006.8 |
| 20260506000818 | 82 | 352 | 0.9 | 1.7 | 0.00 | 0.00 | 0.00 | 71 | 1006.5 |
| 20260506000316 | 83 | 186 | 0.0 | 2.6 | 0.00 | 0.00 | 0.00 | 71 | 1006.4 |
| 20260505235812 | 83 | 177 | 1.7 | 2.6 | 0.00 | 0.00 | 0.00 | 70 | 1006.6 |
| 20260505235310 | 83 | 298 | 1.7 | 2.6 | 0.00 | 0.00 | 0.00 | 70 | 1006.8 |
| 20260505234807 | 84 | 179 | 0.0 | 3.5 | 0.00 | 0.00 | 0.00 | 69 | 1006.8 |
| 20260505234304 | 83 | 24 | 0.0 | 2.6 | 0.00 | 0.00 | 0.00 | 70 | 1006.5 |
| 20260505233801 | 84 | 332 | 0.9 | 4.3 | 0.00 | 0.00 | 0.00 | 69 | 1006.5 |
| 20260505233259 | 84 | 240 | 0.9 | 3.5 | 0.00 | 0.00 | 0.00 | 69 | 1006.4 |
| 20260505232756 | 84 | 199 | 0.0 | 2.6 | 0.00 | 0.00 | 0.00 | 68 | 1006.4 |
| 20260505232253 | 85 | 165 | 0.0 | 2.6 | 0.00 | 0.00 | 0.00 | 68 | 1006.6 |
| 20260505231749 | 85 | 116 | 1.7 | 3.5 | 0.00 | 0.00 | 0.00 | 68 | 1006.2 |
| 20260505231249 | 85 | 293 | 0.0 | 2.6 | 0.00 | 0.00 | 0.00 | 67 | 1006.3 |
| 20260505230746 | 85 | 165 | 2.6 | 2.6 | 0.00 | 0.00 | 0.00 | 67 | 1006.3 |
| 20260505230243 | 85 | 142 | 4.3 | 4.3 | 0.00 | 0.00 | 0.00 | 67 | 1006.3 |
| 20260505225739 | 85 | 256 | 0.9 | 4.3 | 0.00 | 0.00 | 0.00 | 67 | 1006.3 |
| 20260505225237 | 84 | 186 | 1.7 | 1.7 | 0.00 | 0.00 | 0.00 | 68 | 1006.1 |
| 20260505224732 | 84 | 223 | 1.7 | 2.6 | 0.00 | 0.00 | 0.00 | 67 | 1005.9 |
| 20260505224230 | 85 | 152 | 1.7 | 2.6 | 0.00 | 0.00 | 0.00 | 66 | 1006.3 |
| 20260505223727 | 85 | 260 | 0.9 | 2.6 | 0.00 | 0.00 | 0.00 | 66 | 1006.3 |
| 20260505223223 | 85 | 309 | 1.7 | 4.3 | 0.00 | 0.00 | 0.00 | 65 | 1006.1 |
| 20260505222719 | 85 | 166 | 0.0 | 4.3 | 0.00 | 0.00 | 0.00 | 65 | 1006.0 |
| 20260505222215 | 86 | 306 | 0.0 | 3.5 | 0.00 | 0.00 | 0.00 | 65 | 1006.2 |
| 20260505221713 | 85 | 189 | 1.7 | 2.6 | 0.00 | 0.00 | 0.00 | 66 | 1006.3 |
| 20260505221209 | 85 | 153 | 0.0 | 3.5 | 0.00 | 0.00 | 0.00 | 67 | 1006.1 |
| 20260505220706 | 85 | 196 | 1.7 | 4.3 | 0.00 | 0.00 | 0.00 | 66 | 1006.2 |
| 20260505220204 | 85 | 234 | 0.9 | 4.3 | 0.00 | 0.00 | 0.00 | 66 | 1006.3 |
| 20260505215701 | 85 | 293 | 0.0 | 2.6 | 0.00 | 0.00 | 0.00 | 65 | 1006.4 |
| 20260505215200 | 85 | 173 | 1.7 | 5.2 | 0.00 | 0.00 | 0.00 | 66 | 1006.6 |
| 20260505214657 | 84 | 243 | 1.7 | 4.3 | 0.00 | 0.00 | 0.00 | 67 | 1006.6 |
| 20260505214154 | 85 | 214 | 1.7 | 4.3 | 0.00 | 0.00 | 0.00 | 64 | 1006.6 |
| 20260505213652 | 86 | 203 | 3.5 | 3.5 | 0.00 | 0.00 | 0.00 | 65 | 1006.9 |
| 20260505213148 | 84 | 94 | 1.7 | 1.7 | 0.00 | 0.00 | 0.00 | 66 | 1006.6 |
| 20260505212644 | 84 | 179 | 0.0 | 5.2 | 0.00 | 0.00 | 0.00 | 66 | 1006.8 |
| 20260505212142 | 84 | 139 | 0.0 | 5.2 | 0.00 | 0.00 | 0.00 | 66 | 1006.9 |
| 20260505211638 | 84 | 248 | 1.7 | 6.1 | 0.00 | 0.00 | 0.00 | 67 | 1007.0 |
| 20260505211136 | 85 | 187 | 1.7 | 6.1 | 0.00 | 0.00 | 0.00 | 66 | 1006.6 |
| 20260505210633 | 84 | 162 | 0.0 | 2.6 | 0.00 | 0.00 | 0.00 | 68 | 1006.5 |
| 20260505210129 | 84 | 136 | 4.3 | 5.2 | 0.00 | 0.00 | 0.00 | 68 | 1006.9 |
| 20260505205627 | 84 | 79 | 1.7 | 6.1 | 0.00 | 0.00 | 0.00 | 69 | 1006.9 |
| 20260505205125 | 85 | 121 | 0.0 | 3.5 | 0.00 | 0.00 | 0.00 | 67 | 1007.1 |
| 20260505204621 | 84 | 254 | 0.0 | 2.6 | 0.00 | 0.00 | 0.00 | 70 | 1007.1 |
| 20260505204119 | 83 | 202 | 1.7 | 2.6 | 0.00 | 0.00 | 0.00 | 70 | 1007.3 |
| 20260505203615 | 83 | 152 | 0.9 | 4.3 | 0.00 | 0.00 | 0.00 | 70 | 1007.4 |
| 20260505203113 | 83 | 289 | 1.7 | 3.5 | 0.00 | 0.00 | 0.00 | 69 | 1007.3 |
| 20260505202608 | 83 | 281 | 1.7 | 4.3 | 0.00 | 0.00 | 0.00 | 70 | 1007.3 |
| 20260505202105 | 82 | 180 | 1.7 | 6.1 | 0.00 | 0.00 | 0.00 | 69 | 1007.3 |
| 20260505201601 | 83 | 94 | 0.9 | 3.5 | 0.00 | 0.00 | 0.00 | 69 | 1007.3 |
| 20260505201059 | 83 | 340 | 0.9 | 1.7 | 0.00 | 0.00 | 0.00 | 70 | 1007.4 |
| 20260505200557 | 83 | 331 | 1.7 | 3.5 | 0.00 | 0.00 | 0.00 | 68 | 1007.6 |
| 20260505200054 | 83 | 50 | 0.0 | 4.3 | 0.00 | 0.00 | 0.00 | 70 | 1007.4 |
| 20260505195550 | 83 | 126 | 5.2 | 5.2 | 0.00 | 0.00 | 0.00 | 68 | 1007.4 |
| 20260505195047 | 83 | 163 | 0.9 | 7.0 | 0.00 | 0.00 | 0.00 | 69 | 1007.4 |
| 20260505194544 | 83 | 221 | 2.6 | 5.2 | 0.00 | 0.00 | 0.00 | 69 | 1007.4 |
| 20260505194040 | 83 | 242 | 1.7 | 4.3 | 0.00 | 0.00 | 0.00 | 68 | 1007.4 |
| 20260505193537 | 84 | 106 | 1.7 | 3.5 | 0.00 | 0.00 | 0.00 | 68 | 1007.5 |
| 20260505193034 | 84 | 152 | 3.5 | 6.1 | 0.00 | 0.00 | 0.00 | 67 | 1007.4 |
| 20260505192533 | 84 | 187 | 4.3 | 7.0 | 0.00 | 0.00 | 0.00 | 65 | 1007.5 |
| 20260505192030 | 84 | 329 | 1.7 | 3.5 | 0.00 | 0.00 | 0.00 | 66 | 1007.5 |
| 20260505191528 | 84 | 125 | 1.7 | 5.2 | 0.00 | 0.00 | 0.00 | 66 | 1007.8 |
| 20260505191026 | 84 | 214 | 0.0 | 5.2 | 0.00 | 0.00 | 0.00 | 68 | 1007.8 |
| 20260505190520 | 83 | 283 | 1.7 | 3.5 | 0.00 | 0.00 | 0.00 | 70 | 1007.7 |
| 20260505190017 | 82 | 39 | 1.7 | 3.5 | 0.00 | 0.00 | 0.00 | 70 | 1007.9 |
| 20260505185514 | 82 | 300 | 2.6 | 10.4 | 0.00 | 0.00 | 0.00 | 68 | 1007.9 |
| 20260505185010 | 82 | 292 | 3.5 | 7.8 | 0.00 | 0.00 | 0.00 | 70 | 1007.8 |
| 20260505184507 | 82 | 124 | 1.7 | 6.1 | 0.00 | 0.00 | 0.00 | 70 | 1007.9 |
| 20260505184003 | 83 | 206 | 0.9 | 5.2 | 0.00 | 0.00 | 0.00 | 67 | 1008.1 |
| 20260505183500 | 82 | 285 | 1.7 | 3.5 | 0.00 | 0.00 | 0.00 | 69 | 1008.0 |
| 20260505182957 | 83 | 179 | 3.5 | 4.3 | 0.00 | 0.00 | 0.00 | 68 | 1008.1 |
| 20260505182454 | 82 | 87 | 2.6 | 5.2 | 0.00 | 0.00 | 0.00 | 71 | 1007.9 |
| 20260505181950 | 82 | 283 | 3.5 | 4.3 | 0.00 | 0.00 | 0.00 | 70 | 1008.0 |
| 20260505181447 | 82 | 125 | 1.7 | 7.8 | 0.00 | 0.00 | 0.00 | 70 | 1008.0 |
| 20260505180944 | 82 | 212 | 4.3 | 5.2 | 0.00 | 0.00 | 0.00 | 70 | 1007.7 |
| 20260505180440 | 82 | 289 | 1.7 | 6.1 | 0.00 | 0.00 | 0.00 | 70 | 1007.9 |
| 20260505175937 | 81 | 142 | 3.5 | 8.7 | 0.00 | 0.00 | 0.00 | 70 | 1007.9 |
| 20260505175434 | 82 | 148 | 3.5 | 7.0 | 0.00 | 0.00 | 0.00 | 69 | 1008.0 |
| 20260505174930 | 81 | 349 | 1.7 | 2.6 | 0.00 | 0.00 | 0.00 | 73 | 1008.0 |
| 20260505174428 | 80 | 132 | 3.5 | 7.0 | 0.00 | 0.00 | 0.00 | 71 | 1008.1 |
| 20260505173924 | 80 | 261 | 1.7 | 3.5 | 0.00 | 0.00 | 0.00 | 74 | 1008.1 |
| 20260505173420 | 79 | 327 | 0.0 | 5.2 | 0.00 | 0.00 | 0.00 | 74 | 1008.1 |
| 20260505172917 | 80 | 280 | 3.5 | 7.0 | 0.00 | 0.00 | 0.00 | 73 | 1008.4 |
| 20260505172415 | 79 | 246 | 2.6 | 3.5 | 0.00 | 0.00 | 0.00 | 74 | 1008.2 |
| 20260505171914 | 79 | 162 | 0.0 | 7.0 | 0.00 | 0.00 | 0.00 | 75 | 1008.1 |
| 20260505171412 | 79 | 197 | 1.7 | 7.0 | 0.00 | 0.00 | 0.00 | 75 | 1008.1 |